NOAA 16 DEB, 41198

Orbit data source: Space-Track

NOAA 16 DEB, 41198 is space debris in SSO originally from a launch on Thu, 21 Sep 2000 UTC launched from the Air Force Western Test Range (AFWTR). Debris objects in space refer to the collection of defunct objects orbiting the Earth. Examples of debris include non-operational satellites, rocket bodies, and fragments generated from explosions, collisions, or faulty payload assembly.

Loading next visibility...
Identifier
41198, 2000-055DB
Orbit
SSO
Country
Flag of USUS
Related business
Manufacturer
Unknown
Mission
Spacecraft
Bus & Motor
Unknown
Mass
Unknown
Launch date (UTC)
2000-09-21 (26 years ago)
Launch vehicle
Unknown
Launch site
Air Force Western Test Range (AFWTR)
Object type
Payload
Rocket body
Debris
Shape & HBR
Unknown shape, 0.1 m
Radar Cross Section
Medium (>0.1 m² and <1 m²)

Expand to show TLE details & history
Last TLE update: 2 days ago

TLE from 2 days ago
0 NOAA 16 DEB
1 41198U 00055DB  26254.28198486  .00007486  00000-0  20359-2 0  9994
2 41198  98.9096  14.5001 0019710 247.3996 112.5110 14.47675838554249
Epoch: 2026-09-11T06:46Z
TLE epoch observation values (Epoch: 2026-09-11T06:46:03.491Z)
Latitude
-0.00005°
Longitude
-77.32202°
Altitude
741.586 km
Speed
7.481 km/s
True Right ascension
00h 58m 00s
True Declination
0° 00' 00"
Sunlit
Object was in full shadow at epoch
Visualization orbit readout
Latitude
Unknown
Longitude
Unknown
Altitude
Unknown
Speed
Unknown
Apparent Right ascension
Unknown
Apparent Declination
Unknown
Sunlit
N/A
Visualization observer readout
Local Sidereal Time
13:32:14
Azimuth
Unknown
Elevation
Unknown
Doppler factor
Unknown
Orbital elements
Apogee altitude
744.392 km
Perigee altitude
716.37 km
Semi-major axis
7,108.518 km
Eccentricity
0.00197
Inclination
98.9096°
RAAN
14.5001°
Arg. of periapsis
247.3996°
True anomaly
112.71945°
Mean anomaly
112.511°
Eccentric anomaly
112.61525°
Mean motion
3.62138 °/min
Orbital period
99.41 mins
BSTAR
0.0020359
Loading maneuver chart data...
Computing Atmospheric mass density...
Loading historical data...
Loading historical data...
Loading historical data...
Loading historical data...
Loading historical data...
Loading historical data...
Loading historical data...

Documentation

Showing up to 5 results
|